Showing default

KOREASAT 5, 29349

Orbit data source: Space-Track

KOREASAT 5, 29349 is a South Korean payload satellite in GEO that was launched on Tue, 22 Aug 2006 UTC via a ZENIT-3SL launch vehicle from the Sea Launch (SEAL). Payload-class satellites include a variety of spacecraft equipped with specific instruments for various scientific and technological missions. These include communications satellites like Starlink; space stations such as the ISS; scientific satellites like the Hubble; Earth observation satellites from companies like Planet Labs, Umbra, and HawkEye 360; GPS; miniature CubeSats for education and research; and military/defense satellites.

Not visible in the next 10 days
Identifier
29349, 2006-034A
Orbit
GEO
Country
Flag of KRKR / SKOR
Related business
Manufacturer
Alcatel Alenia I
Mission
Operational Civil Communications
Bus & Motor
SPACEBUS 4000C1, S400
Mass
4,448 kg wet, ~2,000 kg dry
Launch date (UTC)
2006-08-22 (20 years ago)
Launch vehicle
ZENIT-3SL
Launch site
Sea Launch (SEAL)
Object type
Payload
Rocket body
Debris
Shape & HBR
Box + 2 Pan, 19.0 m
Radar Cross Section
39.423 m², Large (>1 m²)

Expand to show TLE details & history
Last TLE update: 8 hours ago

TLE from 8 hours ago
0 KOREASAT 5
1 29349U 06034A   26093.84206903 -.00000359  00000-0  00000+0 0  9999
2 29349   1.5932  83.8945 0001690 317.8808 206.5962  1.00272904 40578
Epoch: 2026-04-03T20:12Z
TLE epoch observation values (Epoch: 2026-04-03T20:12:34.764Z)
Latitude
0.44163°
Longitude
113.06146°
Altitude
35,792.094 km
Speed
3.074 km/s
True Right ascension
16h 33m 30s
True Declination
0° 26' 28"
Sunlit
Object was in daylight at epoch
Visualization orbit readout
Latitude
Unknown
Longitude
Unknown
Altitude
Unknown
Speed
Unknown
Apparent Right ascension
Unknown
Apparent Declination
Unknown
Sunlit
N/A
Visualization observer readout
Local Sidereal Time
09:42:15
Azimuth
Unknown
Elevation
Unknown
Doppler factor
Unknown
Orbital elements
Apogee altitude
35,794.476 km
Perigee altitude
35,780.224 km
Semi-major axis
42,165.487 km
Eccentricity
0.00017
Inclination
1.5932°
RAAN
83.8945°
Arg. of periapsis
317.8808°
True anomaly
206.58753°
Mean anomaly
206.5962°
Eccentric anomaly
206.59187°
Mean motion
0.25067 °/min
Orbital period
1,436.13 mins
BSTAR
0
Loading maneuver chart data...
Computing Atmospheric mass density...
Loading historical data...
Loading historical data...
Loading historical data...
Loading historical data...
Loading historical data...
Loading historical data...
Loading historical data...
Other satellites on launch #34 in the year 2006 (2006-08-22 UTC)

Documentation

Showing up to 5 results
|